Presure
151 116 127 116 105 140 103 126 123 138 112 155 150 195 158 120 99 131 119 181 135 168 207 143 375 358 395 502 476 439 425 371 343 337 343 327 324 303 310 274 267 240 214 198 179 172 196
147 119 125 122 109 106 162 114 117 132 136 145 135 166 116 155 144 118 149 135 147 186 136 304 368 299 453 489 495 445 429 388 342 319 341 330 312 315 313 294 268 265 224 209 191 184 169
118 121 133 126 131 120 181 115 119 142 127 141 162 170 177 134 118 116 162 137 149 140 203 378 364 350 492 462 471 477 422 427 339 321 339 326 313 315 337 297 281 299 264 217 199 189 181
117 122 121 124 120 130 148 108 139 145 106 133 143 202 172 173 155 155 145 135 179 207 358 233 126 333 460 472 476 472 428 423 339 326 323 320 315 305 297 314 284 285 269 229 206 200 191
107 122 141 133 113 128 124 118 120 138 122 129 143 214 174 169 126 146 197 134 155 187 122 124 130 346 479 453 477 469 450 418 330 321 317 326 299 305 290 320 305 287 259 260 241 208 197
110 122 115 130 120 125 125 109 132 142 141 132 143 223 144 224 117 121 151 142 147 127 159 150 224 432 448 418 415 491 444 412 328 320 305 300 293 301 297 323 297 286 277 268 271 224 204
108 115 119 119 125 130 114 131 133 125 129 147 156 162 171 164 164 137 124 151 188 119 142 140 349 485 147 425 424 476 443 388 327 317 299 308 348 296 292 316 324 277 269 262 249 255 219
144 117 113 118 127 130 131 108 134 140 136 136 150 169 156 148 175 143 248 152 155 110 173 356 233 478 421 406 441 455 423 356 329 314 308 289 346 316 278 324 315 279 282 268 254 243 231
212 117 118 157 126 127 124 134 132 141 145 147 222 135 126 155 153 141 126 152 166 181 283 268 117 184 387 421 405 398 381 348 325 318 302 299 329 323 285 287 272 294 276 264 259 247 239
186 116 191 130 123 130 134 130 134 124 143 139 128 196 150 132 133 151 160 139 161 182 190 159 116 112 425 419 379 391 379 351 325 313 297 295 294 326 297 269 285 252 273 277 261 252 241
141 119 153 133 127 132 130 126 139 137 141 141 218 186 166 178 126 122 128 128 134 172 112 359 125 115 432 414 380 372 369 342 326 303 290 285 313 300 272 271 262 293 306 280 263 255 249
126 120 126 129 131 125 133 135 138 148 132 141 137 160 153 160 127 122 166 131 137 172 307 352 506 299 423 406 383 383 354 337 324 296 288 281 286 310 275 288 263 271 257 300 265 256 256
113 117 119 121 122 132 127 134 214 129 146 123 147 165 147 160 126 122 131 124 140 186 235 350 450 401 134 388 394 378 352 359 314 297 289 285 300 305 297 261 275 268 270 299 276 258 252
165 170 121 125 128 125 130 133 145 135 152 211 152 104 152 174 155 146 127 134 155 151 168 227 396 411 117 130 393 387 357 324 311 292 286 284 282 284 313 290 260 258 273 267 283 267 254
174 190 130 127 129 125 135 134 142 170 143 141 127 165 160 147 146 117 155 151 146 158 180 353 346 436 355 148 367 389 334 322 300 289 286 298 280 277 295 292 275 256 260 272 258 268 260
195 117 121 163 127 148 136 162 135 132 176 185 126 194 147 139 181 128 126 137 168 137 167 198 342 116 391 131 313 343 328 312 306 290 290 278 282 271 288 296 283 277 263 264 268 267 268
234 229 240 129 126 135 167 139 135 204 152 141 161 135 167 161 114 124 148 159 126 127 160 179 341 298 369 356 348 322 307 297 290 284 282 287 293 243 297 279 290 278 222 274 264 246 245
234 223 188 169 239 129 181 145 248 138 130 139 136 129 166 233 120 125 132 156 156 167 168 170 339 213 389 124 122 323 316 320 285 288 287 293 299 264 271 288 273 274 277 277 274 278 274
216 189 215 184 136 144 221 160 126 148 128 128 134 143 154 141 136 140 122 126 138 151 168 163 222 331 203 357 341 324 327 308 301 297 292 287 281 290 222 281 276 284 274 284 284 278 274
194 251 169 176 182 218 245 126 124 150 137 124 201 139 156 127 128 117 124 151 156 169 182 143 176 337 325 244 344 306 289 294 310 293 286 284 278 275 269 256 258 265 269 268 269 267 273
149 157 224 135 134 201 251 230 147 132 211 127 149 123 155 136 153 128 131 145 117 141 178 181 272 347 329 319 356 335 306 288 284 288 276 282 282 259 254 262 260 263 259 263 260 260 264
128 233 162 218 243 166 150 127 143 133 124 206 146 141 165 162 106 142 135 122 150 142 143 146 165 195 112 321 309 346 322 316 305 292 263 276 273 271 264 253 249 260 260 260 260 271 273
241 156 200 148 241 118 240 150 182 172 134 150 133 130 235 126 168 126 112 123 138 126 140 104 164 196 356 280 277 307 317 314 246 300 290 284 270 285 262 267 271 274 266 262 264 262 264
219 221 187 186 144 145 128 237 133 126 130 149 131 162 168 152 160 121 174 110 121 124 141 104 156 178 256 352 280 283 303 291 301 299 306 306 302 300 303 282 274 273 274 280 279 276 274
257 189 128 128 143 118 138 129 129 137 126 156 143 169 148 153 154 123 174 104 140 127 148 178 178 180 114 232 228 324 147 178 293 284 284 279 273 280 285 285 286 303 318 307 302 301 292
203 126 195 196 222 210 142 146 228 175 235 158 135 147 149 133 136 145 171 124 116 136 102 138 111 149 172 178 358 181 325 303 300 293 286 281 274 268 266 264 274 273 278 279 282 280 268
231 195 191 118 163 202 237 195 214 184 202 234 217 152 157 132 154 124 151 90 122 164 144 155 174 136 164 151 272 166 305 320 309 301 289 284 280 275 271 268 270 258 260 265 263 270 269
127 171 202 226 196 233 166 220 127 192 200 172 195 159 150 152 148 158 132 145 134 148 160 153 168 118 153 207 186 261 267 357 288 309 295 290 284 280 275 267 265 264 263 259 260 258 256
193 186 162 205 212 227 201 241 151 231 151 158 165 158 137 148 140 160 151 124 129 129 116 137 212 187 127 157 234 123 167 311 241 330 310 298 290 285 280 278 275 272 266 265 262 263 261
Wind_Speed
39 34 36 33 26 33 22 34 35 40 30 40 37 57 28 37 23 38 40 49 61 66 71 56 55 48 62 15 34 50 61 71 74 75 79 82 85 86 88 94 100 97 92 89 83 83 90
37 35 39 36 30 24 42 33 36 39 39 40 34 39 33 41 47 36 50 64 69 61 50 51 55 50 37 14 17 45 47 75 72 73 77 80 83 82 84 92 97 101 97 93 88 86 81
37 34 37 39 38 31 57 32 37 39 36 41 42 46 53 49 35 43 45 65 67 52 72 52 54 51 17 12 16 32 49 60 74 75 76 78 84 82 81 88 97 93 106 96 89 87 88
37 37 36 41 34 34 35 27 33 38 25 35 31 64 41 51 23 48 58 56 54 77 57 82 39 52 24 11 12 26 49 58 73 73 73 78 78 82 85 86 95 96 100 98 93 91 90
34 38 42 41 29 34 31 30 34 38 32 32 30 74 51 24 25 48 60 50 58 63 32 36 45 53 11 9 2 22 44 63 72 72 70 74 77 83 84 82 88 94 101 106 100 94 90
36 39 35 43 36 36 32 29 36 39 39 32 33 77 36 77 37 48 44 61 59 38 43 57 47 31 4 8 2 12 45 64 74 73 70 76 80 78 82 81 87 89 98 100 96 97 92
38 38 40 40 41 43 31 35 36 34 34 41 43 46 47 18 33 52 42 58 65 29 48 39 54 16 46 4 9 21 49 75 74 72 77 75 63 74 72 73 78 89 95 94 96 97 97
51 41 36 40 42 43 38 26 37 39 37 32 41 49 32 18 35 44 77 53 53 20 39 53 43 11 3 3 19 28 49 74 74 74 75 74 65 73 77 73 72 85 88 89 94 97 99
91 43 43 53 43 42 34 37 35 39 41 39 72 32 33 37 25 41 40 46 47 61 42 55 27 27 3 8 38 46 55 78 75 72 65 65 63 68 70 72 78 74 80 87 92 95 99
52 44 56 45 40 42 37 36 35 27 40 29 34 60 32 38 37 32 37 47 48 66 66 29 27 28 5 33 38 40 58 76 72 62 62 60 58 62 66 73 72 78 79 82 88 93 97
48 47 47 46 43 43 39 31 39 35 36 30 66 56 46 48 40 38 43 42 46 58 25 49 32 30 15 46 31 45 54 69 67 59 59 59 59 59 64 68 72 67 63 76 87 92 94
52 48 48 43 43 36 40 38 38 39 25 29 29 43 25 22 31 38 28 43 44 61 54 47 15 12 24 42 40 50 56 61 60 58 56 55 54 53 63 63 65 68 74 61 83 88 87
34 43 43 40 35 42 33 36 72 25 40 23 36 41 20 39 37 40 44 35 50 63 59 44 17 13 38 21 35 48 51 56 53 56 55 53 54 53 56 63 61 63 66 60 77 81 83
51 44 43 43 42 32 34 34 38 28 40 52 37 18 31 49 20 24 27 40 43 45 57 64 29 22 26 39 20 40 45 46 52 47 46 48 49 52 50 56 62 64 59 64 63 75 81
55 49 46 44 45 33 42 35 37 42 30 23 16 30 36 4 13 26 23 33 45 45 60 37 37 26 13 27 16 32 36 43 44 44 44 46 43 46 48 51 55 59 60 58 66 67 73
53 38 40 46 42 45 43 43 29 26 42 37 18 46 25 17 41 32 34 34 49 31 52 65 37 17 16 24 8 30 32 37 41 41 45 35 39 42 43 48 51 53 59 60 60 63 66
87 70 78 47 37 44 41 35 28 47 26 22 38 22 46 36 26 30 20 33 23 29 49 60 34 10 7 12 22 26 27 27 28 31 30 30 34 27 37 43 50 52 48 54 59 66 71
87 64 52 51 58 33 46 41 44 26 17 21 17 16 44 48 20 21 23 31 36 47 52 55 26 28 8 27 27 19 25 31 28 20 26 32 30 32 34 37 43 45 46 51 52 52 55
52 56 55 51 44 44 48 35 19 36 18 19 17 25 31 5 3 5 26 36 32 43 49 49 48 23 32 9 15 12 19 19 17 17 23 24 24 28 29 31 32 33 40 41 43 45 49
54 68 46 44 36 41 43 20 22 23 16 21 39 19 30 22 15 14 18 12 36 37 51 34 54 18 19 3 13 12 16 17 24 21 18 24 22 26 29 39 38 36 38 41 42 43 46
41 42 50 39 32 38 35 39 38 16 34 19 32 12 34 11 31 13 12 6 24 23 45 52 36 15 14 14 17 15 17 20 21 24 30 21 26 38 39 37 40 39 43 43 47 54 52
32 69 32 44 48 25 43 21 28 16 21 37 27 21 38 38 14 16 8 19 29 17 31 33 49 60 17 11 14 19 9 10 15 21 24 32 31 32 38 44 45 42 44 46 48 44 43
65 42 49 29 41 31 38 25 24 26 22 31 19 19 33 9 35 16 20 15 14 22 20 9 44 56 11 17 36 13 7 11 10 15 21 28 36 26 39 45 42 42 48 52 51 53 52
44 45 31 34 40 26 25 38 18 23 21 34 20 37 35 32 38 15 27 21 19 5 18 6 34 53 35 10 31 32 12 15 13 13 21 29 27 32 38 39 42 44 46 43 44 48 48
47 42 25 25 26 29 25 20 19 27 22 35 31 36 31 35 33 20 46 21 13 15 18 44 54 59 16 41 16 12 22 24 18 18 19 19 20 23 25 27 26 26 31 31 32 32 34
46 29 33 31 33 32 29 24 29 28 25 34 23 29 34 20 16 26 30 27 23 28 19 12 30 45 50 54 14 18 19 17 22 23 23 25 26 26 27 26 25 25 29 29 29 28 34
53 40 38 31 28 29 33 27 26 25 26 22 20 35 38 16 39 11 25 10 14 40 14 37 64 18 50 39 68 53 18 21 24 27 28 28 29 30 32 30 27 32 33 32 29 29 33
34 39 32 33 29 34 26 27 26 26 27 32 24 37 35 35 35 39 11 29 16 38 36 29 61 32 42 65 52 70 52 24 24 26 27 30 32 34 35 34 32 35 35 35 35 36 37
48 50 30 29 25 33 34 26 30 23 32 23 35 36 29 35 31 42 32 36 14 8 24 8 58 61 43 51 78 24 52 36 24 26 27 31 33 36 36 37 37 39 39 38 39 41 41
Wind_Direction
282 269 276 276 288 295 308 297 304 302 320 316 319 326 308 299 300 325 333 342 327 328 341 330 338 340 342 273 214 203 208 202 204 208 205 205 207 207 207 209 214 217 218 218 217 218 222
281 270 275 277 280 292 301 302 305 305 305 314 307 331 299 322 286 333 322 319 310 342 326 336 338 337 334 295 229 207 203 197 201 206 205 204 206 207 204 206 210 213 217 217 217 219 217
264 270 272 277 279 285 309 299 302 303 307 312 321 327 326 291 338 337 328 315 310 327 344 338 339 341 313 297 229 209 201 198 199 203 204 204 206 202 201 203 207 210 213 217 217 218 219
265 267 272 277 281 284 287 301 299 303 316 308 325 326 315 324 304 317 305 321 344 348 340 342 344 343 328 291 217 205 193 190 197 201 202 203 205 203 204 202 208 210 212 217 217 219 220
266 269 276 273 278 285 288 297 299 300 311 311 324 327 328 336 291 300 322 327 314 347 344 347 343 345 330 65 90 203 187 184 194 198 199 203 205 204 205 204 205 209 212 214 215 218 220
267 269 272 272 282 286 289 301 299 304 307 312 321 326 330 329 320 334 325 311 315 327 346 327 347 346 330 339 65 177 179 180 192 195 197 201 204 205 204 202 205 209 212 214 212 220 220
269 269 271 277 278 283 291 294 298 303 308 311 322 325 331 315 308 295 336 305 354 330 331 341 345 355 330 209 182 157 172 181 190 192 199 202 198 202 203 203 202 208 213 214 215 216 221
272 265 272 274 275 280 287 303 300 304 307 318 324 324 345 277 333 297 343 309 321 339 347 347 352 4 332 348 138 145 160 178 188 195 194 203 201 201 201 201 204 208 212 214 215 216 219
293 265 268 289 273 280 288 290 299 302 307 313 319 308 328 312 307 304 334 341 342 357 343 338 350 358 302 120 139 152 165 181 186 195 194 201 202 201 201 203 207 208 209 213 215 216 219
282 263 296 261 273 275 280 290 295 299 307 321 308 322 341 310 297 334 358 321 352 354 355 344 346 354 107 147 152 152 177 181 187 189 191 197 199 203 202 205 206 210 209 211 214 216 219
250 259 268 259 270 273 283 290 290 300 309 320 314 319 327 325 303 324 326 331 329 355 346 354 345 349 145 155 159 166 170 182 184 181 190 196 198 197 198 203 207 209 211 211 214 217 218
245 255 254 259 263 277 277 284 288 298 311 318 323 319 337 325 309 329 355 328 331 352 356 356 21 19 110 153 159 166 175 183 177 179 189 193 196 198 197 202 206 209 210 212 215 220 220
258 257 261 267 271 268 282 283 304 295 300 300 317 316 334 314 299 321 313 333 325 357 358 359 27 128 351 133 168 172 181 182 174 182 186 191 197 195 199 203 206 210 213 213 216 220 223
248 257 258 261 266 274 281 283 289 296 294 304 314 313 333 322 307 309 334 322 335 349 360 354 11 152 6 4 156 171 182 168 173 181 188 192 194 196 199 202 208 210 214 216 219 220 223
243 260 261 258 264 269 273 281 282 293 299 309 304 324 319 281 312 306 359 335 327 354 360 358 8 156 157 13 158 171 168 167 173 181 191 197 193 196 198 203 208 215 217 217 219 222 225
252 255 256 260 263 272 272 279 285 284 290 304 305 315 332 285 330 290 315 330 349 349 352 358 6 2 150 10 121 162 165 167 176 183 193 194 191 199 203 201 206 211 216 219 221 225 226
267 271 276 253 260 262 270 272 280 282 285 298 299 313 309 331 300 304 18 30 345 338 353 358 1 27 76 112 145 155 164 174 181 191 194 197 200 214 206 206 205 213 225 221 224 226 229
262 265 238 247 282 262 279 266 277 277 278 305 309 318 307 331 276 314 307 21 20 359 0 360 3 352 151 353 2 163 174 182 181 190 195 197 202 203 205 205 210 214 219 222 228 230 232
249 233 256 244 251 250 283 264 249 275 272 283 302 316 301 36 200 254 305 306 336 336 10 359 2 6 338 169 163 152 183 176 176 189 196 197 201 198 236 206 215 219 221 224 225 228 232
244 252 234 243 262 277 273 239 247 274 286 276 299 315 313 316 242 288 301 3 344 4 3 360 2 360 3 234 197 136 160 164 198 191 180 195 192 199 204 204 208 215 218 222 226 231 233
236 236 253 244 244 268 257 259 262 264 285 273 294 295 302 186 321 270 282 325 322 19 357 8 4 357 351 356 206 210 164 180 180 175 194 187 208 197 209 207 211 216 218 220 221 227 229
248 246 235 257 266 229 248 242 264 266 265 287 296 309 298 310 298 283 235 296 330 352 11 9 10 6 329 339 344 220 213 205 187 188 218 190 191 197 207 219 227 217 221 223 227 231 234
235 238 234 228 259 244 248 242 255 269 279 288 294 296 317 248 314 221 291 276 321 316 20 334 1 6 318 342 11 323 262 244 297 218 210 210 218 214 223 221 220 221 223 225 226 231 231
215 224 211 223 239 225 239 248 255 262 275 281 289 287 303 311 316 230 316 296 294 331 10 315 21 7 5 288 0 1 297 304 263 255 257 258 251 254 260 235 234 230 233 233 234 235 238
203 212 223 217 226 238 231 242 249 268 272 273 291 282 304 311 320 220 318 305 290 303 355 3 351 358 344 5 325 281 325 317 265 274 261 254 250 240 240 240 239 247 250 243 244 244 243
198 219 204 216 243 228 248 251 247 268 270 269 287 289 303 309 316 284 305 224 269 320 332 25 319 344 4 5 269 308 266 273 257 255 255 255 257 257 256 255 252 250 247 246 244 240 244
215 199 210 218 227 227 231 241 247 262 261 275 283 286 294 300 313 241 303 274 284 316 343 355 339 349 356 10 17 350 333 265 258 257 259 259 258 257 259 257 255 255 256 254 250 248 251
204 203 204 225 225 226 238 241 247 253 265 257 281 275 298 306 304 313 240 299 257 305 328 356 338 312 11 1 6 7 8 267 269 259 260 259 259 258 258 259 256 256 257 257 258 257 256
197 211 206 209 222 227 238 229 261 248 263 276 256 275 296 303 306 307 304 217 287 351 327 51 353 340 315 3 12 337 347 356 281 260 261 261 261 261 261 260 259 256 257 258 258 256 255